星链-4339 (STARLINK-4339 )

导读 | 星芒AI

STARLINK-4339 是 SpaceX 星链计划中的一颗低轨通信卫星,属于该计划的第四批发射任务。它运行在约 550 公里的高度,旨在为全球用户提供高速互联网服务。该卫星采用先进的相控阵天线和激光通信技术,以提升连接速度和稳定性。星链系统通过部署大量卫星,构建覆盖全球的宽带网络,尤其服务于偏远地区。STARLINK-4339 与其他星链卫星协同工作,为用户带来低延迟、高带宽的网络体验。

基本信息
目录编号:
53054
目录名称:
STARLINK-4339
国际标识:
2022-077M
轨道中心:
EARTH
卫星名称:
星链-4339
卫星全名:
星链-4339 (STARLINK-4339 )
卫星状态:
在轨 (已飞行1213 天)
发射日期:
2022-07-11 UTC
国别 :
美国 (US)
星等 :
--
轨道信息
数据来源 国际轨道数据 AOE轨道数据
星历时间 2025-11-05T02:17:49+0800
8小时前
查看轨道信息
2025-11-02T21:00:00+0800
2天前
查看轨道信息
半长轴 6927.659km 6927.647km
偏心率 0.0001497 0.0001354
轨道倾角 97.603° 97.603°
近地点辐角 83.937° 85.270°
升交点赤经 128.123° 125.933°
平近点角 276.203° 125.476°
近地点 548.486km 548.573km
远地点 550.562km 550.451km
周期 95.640分钟 95.640分钟
每日圈数 15.056465 15.056504
详细信息
固有亮度:
5
最大亮度:
2.5
卫星平台:
Starlink v1.5
覆盖范围:
全球
运营商:
太空探索技术公司
运营商所在国:
美国
制造商(研发单位):
太空探索技术公司
制造商所在国:
美国
使用方式:
暂无
卫星简介
星链(Starlink)计划是由太空探索技术公司(SpaceX)提出的一个巨型低轨卫星互联网星座项目,计划在2019年至2024年间在太空搭建由约1.2万颗卫星组成的“星链”网络,其中1584颗将部署在地球上空550千米处的近地轨道,并从2020年开始工作。该卫星仍在工作。
2D轨道图
3D轨道图
轨道高度分析图
轨道倾角分析图
轨道综合分析图
查看轨道综合分析图